FW4292 Weather Reports


time (UTC)temp
C
wind
direction
speed
KPH
gust
KPH
rain 1hr
cm
rain 24hr
cm
rain mn
cm
humidity
%
barometer
mb
20260504183046 17 213 17.7 32.2 0.00 0.00 0.00 43 1007.4
20260504181547 16 206 9.7 17.7 0.00 0.00 0.00 42 1007.8
20260504180042 15 246 11.3 24.1 0.00 0.00 0.00 44 1007.7
20260504174539 14 228 11.3 29.0 0.00 0.00 0.00 45 1007.8
20260504173036 14 189 8.0 19.3 0.00 0.00 0.00 46 1007.9
20260504171536 14 223 8.0 27.4 0.00 0.00 0.00 46 1007.9
20260504081517 5 238 3.2 8.0 0.00 0.03 0.00 65 1010.2
20260504044553 2 202 3.2 6.4 0.00 0.03 0.00 64 1010.1
20260504043049 2 191 1.6 3.2 0.00 0.03 0.00 64 1010.2
20260504041546 2 191 0.0 3.2 0.00 0.03 0.00 61 1010.1
20260504040046 3 190 1.6 4.8 0.00 0.03 0.00 60 1010.1
20260504034542 3 5 1.6 3.2 0.00 0.03 0.03 59 1010.0
20260504033050 3 5 0.0 4.8 0.00 0.03 0.03 57 1010.1
20260504031542 3 360 1.6 4.8 0.00 0.03 0.03 56 1010.1
20260504030041 3 9 3.2 4.8 0.00 0.03 0.03 56 1010.0
20260504024554 3 360 3.2 4.8 0.00 0.03 0.03 56 1010.1
20260504023044 3 360 1.6 12.9 0.00 0.03 0.03 57 1010.2
20260504021548 4 329 3.2 4.8 0.00 0.03 0.03 56 1010.2
20260504020046 4 329 0.0 3.2 0.00 0.03 0.03 54 1010.2
20260504014538 4 329 0.0 4.8 0.00 0.15 0.03 54 1010.1
20260504013045 4 252 0.0 4.8 0.00 0.15 0.03 56 1010.1
20260504011540 4 248 0.0 3.2 0.00 0.15 0.03 55 1009.9
20260504010037 4 249 1.6 3.2 0.00 0.15 0.03 56 1009.9
20260504004543 5 248 0.0 0.0 0.00 0.15 0.03 54 1009.8
20260504003035 5 247 0.0 1.6 0.00 0.15 0.03 53 1009.7
20260504001535 6 247 1.6 4.8 0.00 0.15 0.03 51 1009.5
20260504000034 6 242 0.0 8.0 0.00 0.15 0.03 50 1009.4
20260503234534 6 302 3.2 11.3 0.00 0.18 0.03 49 1009.1
20260503233034 6 284 1.6 9.7 0.00 0.18 0.03 52 1009.0
20260503231532 6 260 1.6 11.3 0.00 0.18 0.03 50 1008.9
20260503230032 7 205 3.2 12.9 0.00 0.18 0.03 49 1008.7
20260503224531 7 205 3.2 16.1 0.00 0.18 0.03 48 1008.7
20260503223031 7 167 9.7 19.3 0.00 0.18 0.03 46 1008.6
20260503221530 7 222 9.7 29.0 0.00 0.18 0.03 44 1008.4
20260503220034 7 239 4.8 25.7 0.00 0.18 0.03 47 1008.5
20260503214529 7 165 6.4 17.7 0.00 0.20 0.03 47 1008.4
20260503213029 8 59 8.0 20.9 0.00 0.20 0.03 45 1008.5
20260503211536 7 288 6.4 38.6 0.00 0.20 0.03 46 1008.5
20260503210031 7 175 4.8 27.4 0.00 0.20 0.03 45 1008.3
20260503204525 8 56 8.0 20.9 0.00 0.48 0.03 44 1008.3
20260503203026 8 67 6.4 17.7 0.00 0.48 0.03 46 1008.2
20260503201526 8 298 4.8 16.1 0.00 0.48 0.03 44 1008.1
20260503200025 8 150 6.4 19.3 0.00 0.48 0.03 45 1008.0
20260503194522 8 175 8.0 20.9 0.00 0.48 0.03 48 1008.1
20260503193034 8 30 4.8 22.5 0.00 0.48 0.03 45 1008.3
20260503191520 7 123 3.2 20.9 0.00 0.48 0.03 45 1008.0
20260503190029 8 11 8.0 30.6 0.00 0.48 0.03 46 1008.1
20260503184519 8 65 6.4 19.3 0.00 0.51 0.03 49 1008.1